Wind_Speed
14 10 9 9 9 10 9 9 7 2 4 7 7 5 5 5 4 7 7 8 10 6 8 12 9 9 10 11 13 15 14 15 16 17 18 19 19 19 19 18 18 17 16 16 16 16 15 14 13 12 12 11 11 11 10 10 10 10 10 10 11 12 12 11 9 9 10 10 10 10 10 10 11 13 13 12 12 11 11 13 12 11 10 10 9 9
12 10 10 14 9 6 7 7 6 3 3 7 7 5 5 6 5 6 7 9 9 6 7 9 8 9 9 9 13 14 13 15 17 17 18 19 19 19 19 19 18 17 16 17 17 17 15 14 14 12 12 12 11 11 11 10 10 11 10 10 10 10 11 11 10 9 9 9 9 10 10 9 9 12 12 11 11 11 11 12 11 10 10 10 9 9
11 10 13 16 7 2 5 5 6 5 3 5 5 5 3 5 7 6 6 9 8 6 6 9 8 7 8 8 12 16 14 13 15 17 17 18 18 18 19 19 18 18 17 18 18 17 16 15 15 13 12 12 12 11 11 11 11 11 11 12 11 9 9 10 9 9 9 9 8 9 11 11 10 11 11 11 12 12 12 12 11 10 10 9 9 10
10 10 14 14 5 5 7 5 7 6 5 5 5 6 4 7 7 4 5 8 6 3 3 9 6 5 7 7 9 16 15 7 6 12 16 17 17 17 19 18 19 20 19 19 19 18 17 16 15 14 13 12 12 12 12 12 12 12 12 12 12 10 8 8 9 10 10 9 9 9 11 11 11 12 11 12 12 12 12 12 11 10 9 9 9 9
9 8 13 13 7 8 8 7 9 7 6 5 4 4 4 6 4 3 7 8 6 2 3 7 5 3 6 8 8 13 14 7 4 8 13 16 16 16 17 18 19 20 19 19 20 19 18 17 16 14 13 13 12 13 13 13 13 12 12 11 11 10 9 9 9 10 10 10 10 11 12 12 11 12 12 12 12 12 12 11 10 9 9 9 9 8
8 6 10 12 9 9 8 8 10 8 6 5 4 2 2 3 1 7 11 9 6 4 7 9 5 3 6 9 9 10 11 10 8 11 14 16 17 16 17 18 19 19 19 20 20 20 19 18 17 15 14 13 13 13 13 13 13 13 12 12 12 11 10 10 10 10 10 9 10 11 12 11 11 11 11 11 11 12 11 10 10 10 9 9 8 8
6 8 12 13 10 10 9 8 9 8 7 4 7 6 1 4 4 7 10 8 3 2 8 9 4 1 4 8 9 10 11 12 12 14 15 17 17 17 17 18 19 19 20 20 19 20 19 18 17 16 15 14 13 13 13 13 13 13 13 13 13 12 11 11 11 11 10 9 8 10 10 10 9 9 10 11 11 11 11 11 11 10 10 10 9 8
7 10 12 13 12 11 9 8 7 8 8 1 10 7 4 6 7 7 8 7 2 4 7 7 3 1 1 5 9 11 10 10 13 14 15 17 18 18 18 18 18 20 21 21 20 20 20 19 18 16 15 15 13 13 13 13 13 14 14 13 13 13 12 11 11 10 10 9 9 10 9 8 8 8 9 10 11 11 11 11 11 10 10 10 10 9
9 10 11 13 12 9 9 8 5 9 8 2 9 5 5 6 8 8 7 5 3 3 4 6 5 2 0 2 7 12 11 10 14 15 15 17 18 19 20 19 18 19 21 21 21 21 20 19 18 17 16 15 14 13 13 13 13 14 14 14 14 14 12 12 11 11 9 8 9 10 9 8 8 8 9 10 10 11 11 10 10 10 10 10 10 9
9 10 9 12 11 9 11 7 4 8 6 3 6 6 4 5 6 6 6 4 4 5 4 9 10 4 1 2 6 10 11 12 13 13 15 18 18 18 20 20 19 19 21 21 21 21 20 19 19 17 16 15 15 14 14 13 13 13 15 15 14 14 13 12 12 11 10 9 9 9 9 9 9 8 9 10 11 11 11 11 10 10 10 10 10 10
7 6 5 8 9 8 9 5 4 8 5 4 7 6 4 5 4 4 4 3 4 6 5 12 14 7 2 3 6 7 8 10 11 9 11 16 17 18 19 20 20 20 21 21 21 20 20 19 18 17 16 15 15 14 14 14 13 13 14 15 15 15 14 13 13 12 11 10 9 9 10 10 10 9 9 10 10 10 11 11 10 10 9 9 10 10
8 7 5 7 9 7 6 4 5 7 7 7 7 6 5 4 4 4 4 4 5 5 3 10 14 10 4 2 5 8 7 10 13 10 10 14 18 19 19 19 20 20 20 21 21 21 21 20 19 17 16 15 15 15 15 15 14 13 14 15 15 16 15 14 13 13 12 11 10 10 11 11 11 10 9 9 9 9 10 10 10 9 9 9 10 10
8 9 8 8 10 10 9 7 7 7 9 10 8 8 7 4 5 5 5 6 5 4 3 7 11 8 4 2 5 10 9 9 13 13 13 18 21 20 19 19 20 20 20 21 21 21 21 21 19 18 17 16 17 17 17 16 14 14 14 14 15 16 16 15 14 14 13 12 11 11 12 12 12 11 10 10 9 9 9 9 9 9 9 9 9 9
7 9 11 10 9 12 13 8 7 8 9 11 9 9 8 6 6 7 7 6 5 5 5 7 7 5 4 4 4 8 9 8 11 15 17 22 26 23 20 19 19 19 20 21 21 21 21 20 19 18 18 18 18 17 17 17 16 16 15 15 16 16 16 16 15 15 14 13 12 12 12 12 12 11 11 10 8 8 8 9 9 8 8 8 7 8
8 8 11 13 9 11 14 11 7 7 9 10 9 9 9 6 6 6 5 5 5 6 6 7 6 3 4 5 3 5 8 8 10 12 15 22 28 26 20 18 18 18 18 19 21 21 21 20 19 18 18 18 18 17 17 18 18 18 17 16 16 17 17 16 16 16 15 14 13 13 13 13 12 11 9 9 9 8 8 8 8 8 8 7 7 8
8 5 7 15 14 12 15 14 10 7 9 9 8 9 8 7 6 4 3 4 3 3 5 6 3 2 5 7 6 6 7 9 10 11 14 18 23 24 20 17 18 17 17 18 19 20 21 20 19 19 19 18 17 17 18 19 20 21 19 17 16 16 17 17 17 16 15 14 14 14 14 13 13 12 10 10 10 9 8 8 8 8 8 7 7 8
7 4 7 13 15 13 15 16 13 10 7 7 9 10 8 7 7 5 3 3 3 2 4 5 4 4 6 6 7 7 7 8 11 13 14 16 20 22 21 20 20 18 17 17 18 19 20 20 19 19 19 17 17 18 19 20 21 21 20 18 17 16 17 17 17 17 15 15 15 15 15 14 14 13 10 9 9 9 8 8 8 7 7 7 7 7
4 3 8 12 14 14 16 17 16 15 11 6 8 10 8 6 7 6 4 4 5 6 4 5 6 6 5 4 6 8 8 9 11 13 14 16 19 22 21 20 20 20 18 17 18 18 18 19 19 19 18 17 18 19 20 21 21 21 22 20 18 17 17 17 17 17 16 16 16 15 16 15 15 13 11 9 10 10 9 9 8 7 7 7 7 7
3 3 7 11 13 13 14 13 13 15 16 10 6 9 10 7 6 6 5 4 6 6 4 5 6 6 4 5 8 9 9 10 11 12 13 14 18 21 21 22 21 20 17 16 17 18 18 19 19 19 18 17 18 19 19 21 21 20 21 21 19 18 17 17 17 17 17 17 16 16 16 16 16 15 13 11 11 11 10 9 8 8 7 7 7 8
4 5 4 9 11 12 11 10 10 12 14 11 8 9 8 6 6 6 5 4 4 5 5 4 5 5 2 4 10 10 9 10 11 10 10 13 17 20 21 23 23 24 21 17 16 16 17 18 18 18 19 18 17 18 19 20 21 20 20 21 20 19 18 17 17 17 17 17 17 17 17 17 16 16 15 13 13 12 11 11 9 8 8 8 8 8
4 5 3 6 9 9 9 9 10 10 11 10 9 9 8 6 7 5 5 6 3 4 5 3 4 3 4 2 6 9 8 9 10 9 8 11 15 18 21 23 24 26 27 21 16 14 15 17 17 17 18 17 16 17 19 20 21 20 19 20 21 20 20 19 18 18 17 17 17 17 18 17 17 17 16 14 13 12 11 11 10 9 9 8 9 9
5 4 4 5 8 9 9 12 14 12 11 12 9 9 9 9 8 7 7 6 5 5 4 3 3 4 4 1 3 6 6 7 8 8 7 9 13 16 19 22 23 25 25 22 18 14 13 15 17 17 17 17 17 18 19 20 20 20 20 20 21 21 20 19 18 18 17 17 17 17 17 17 16 17 16 15 14 13 12 12 11 11 10 9 9 9
2 4 6 5 6 6 4 9 12 9 9 13 12 10 10 10 9 8 8 7 6 6 4 5 4 3 4 1 3 6 5 6 7 7 5 6 10 14 16 20 23 23 23 22 20 17 14 14 16 16 17 18 19 19 20 20 20 20 19 20 21 22 20 18 18 18 17 17 18 18 17 16 16 17 17 16 15 14 13 12 12 12 11 10 9 10
1 4 6 5 4 3 2 5 7 7 8 11 12 11 11 11 11 10 7 5 5 7 6 6 5 3 3 2 3 6 7 7 6 7 6 5 7 11 14 18 21 22 22 21 20 18 16 14 14 15 17 19 21 20 20 22 21 18 18 20 21 21 20 18 18 17 16 16 17 17 16 16 16 17 17 17 16 15 15 13 12 12 12 11 10 10
4 4 5 6 6 6 5 6 9 10 10 9 10 12 12 14 15 13 9 5 5 8 7 6 4 3 4 5 6 7 7 7 7 8 7 6 7 8 11 15 19 20 21 22 21 20 19 17 15 15 16 18 21 23 22 24 23 19 18 20 22 22 21 20 19 17 15 15 16 16 16 16 16 16 17 16 16 15 15 14 13 13 13 12 11 11
5 4 5 7 7 7 7 7 7 9 10 9 11 13 14 15 15 11 8 6 6 6 6 7 4 5 7 8 8 8 7 7 8 8 8 7 7 7 8 11 13 15 17 19 20 21 22 22 20 18 16 16 19 23 24 24 24 22 20 21 22 22 21 21 19 17 16 16 16 16 16 15 15 15 16 16 16 15 15 15 14 14 14 14 13 12
3 4 4 6 6 4 2 1 0 5 11 12 10 12 13 14 14 10 9 9 7 5 6 7 4 6 10 10 10 10 8 8 9 9 9 8 7 7 7 7 8 9 12 15 17 17 20 22 23 22 20 19 18 21 23 23 22 21 21 22 22 21 21 22 20 19 18 17 16 16 16 16 16 15 15 15 16 15 15 15 15 15 15 14 14 14
3 4 5 5 6 4 3 3 2 5 11 13 13 14 14 14 14 12 11 8 6 7 7 6 7 7 10 12 12 11 9 8 9 10 10 8 7 7 7 6 6 6 8 12 14 16 17 19 22 24 23 23 19 18 20 22 20 19 19 20 20 19 21 22 20 20 20 19 18 18 17 16 16 16 16 16 16 16 16 15 15 16 15 15 15 15
4 4 4 5 5 2 2 2 2 5 9 10 11 13 14 16 15 14 13 11 10 9 5 4 8 7 8 13 12 11 11 10 11 12 11 10 9 8 8 7 6 5 5 7 10 14 17 18 20 22 23 23 20 18 17 17 16 17 17 17 18 17 18 19 17 17 18 19 19 19 18 18 17 17 17 16 17 17 16 16 16 17 17 17 16 15
3 3 2 4 3 3 3 4 5 7 8 7 5 5 8 12 13 13 13 9 6 6 5 5 7 5 9 13 12 13 14 13 13 12 11 11 11 10 10 10 8 6 4 3 5 10 15 19 20 20 20 22 24 23 21 16 14 15 16 15 16 15 16 16 14 13 15 17 18 18 17 17 18 18 18 17 17 17 17 17 16 17 17 18 17 16
1 3 3 4 4 4 3 6 7 7 9 9 6 5 1 5 8 9 8 6 4 6 6 9 9 8 10 13 15 15 15 14 12 11 11 11 11 11 11 11 10 8 6 5 5 7 12 18 21 21 21 22 23 23 23 20 17 17 18 17 17 15 15 15 15 15 15 15 16 15 15 15 17 17 17 17 17 17 17 17 17 17 17 17 17 17
3 4 3 4 6 4 2 5 9 9 10 9 8 9 6 0 4 4 4 5 5 8 10 10 7 7 10 14 17 16 15 13 12 11 11 11 11 12 12 12 11 10 9 9 10 11 12 16 20 22 22 22 21 19 20 21 20 17 17 18 18 17 16 15 16 18 18 16 14 13 12 13 14 14 14 15 16 17 17 17 18 18 17 16 16 16
3 5 4 3 5 5 2 4 8 9 9 6 5 9 7 3 1 2 4 4 3 1 5 4 3 9 12 14 15 14 14 14 13 12 12 12 13 13 13 13 13 13 12 12 13 15 15 17 19 21 22 22 21 20 20 20 19 17 16 17 17 17 16 15 15 17 18 18 16 14 13 12 12 13 12 12 14 15 16 17 18 18 18 17 17 17
3 6 5 3 4 5 2 3 7 8 8 3 5 7 5 3 2 2 5 6 6 5 2 4 8 12 14 13 13 13 13 14 13 13 13 13 14 14 14 15 15 15 16 15 16 17 16 17 19 20 21 21 19 18 17 16 16 16 17 18 18 18 18 18 18 16 16 17 17 17 17 15 14 15 14 13 13 13 14 15 16 17 17 17 17 17
4 5 4 3 4 3 0 3 7 7 3 3 5 5 3 2 3 5 7 7 6 5 6 8 11 13 14 15 15 15 15 16 14 13 13 13 14 15 15 15 15 17 17 16 17 18 18 19 20 21 21 20 19 17 16 15 14 15 16 15 15 16 17 17 16 14 14 15 16 17 18 18 19 18 15 13 12 11 12 13 14 15 16 15 15 15
3 3 4 3 3 3 4 4 4 3 3 4 3 4 3 2 3 4 6 7 6 4 5 7 9 13 16 18 18 17 18 18 16 13 12 13 14 15 16 16 18 20 20 18 17 17 18 20 21 22 23 22 21 19 18 17 16 16 15 13 12 12 11 10 10 10 10 11 12 14 14 14 16 16 15 14 13 13 14 12 12 14 14 12 13 13
4 1 4 3 1 3 6 3 3 3 3 4 3 4 4 2 4 3 1 6 5 2 4 7 10 14 17 18 19 20 21 19 14 11 11 13 13 15 18 20 21 22 23 22 21 20 21 23 23 23 23 23 23 21 19 17 17 16 16 15 14 13 12 10 10 10 10 10 9 9 8 6 7 10 11 12 11 12 13 11 9 10 10 10 10 11
3 2 2 3 1 2 6 4 4 6 4 3 4 5 4 3 4 5 1 4 4 2 5 9 12 16 18 17 19 21 19 14 9 8 12 15 15 18 22 23 22 22 23 24 24 23 23 23 22 22 22 23 24 22 19 17 17 18 19 17 16 15 14 14 14 13 12 12 10 9 7 6 7 7 7 7 5 5 8 9 9 8 9 9 8 8
1 1 2 4 3 2 6 6 4 4 2 2 3 5 6 4 2 2 1 3 3 1 6 12 15 16 17 18 21 20 14 8 6 10 15 18 19 22 25 24 21 20 21 21 21 22 21 20 20 19 20 20 20 19 17 15 15 16 18 17 16 16 16 17 17 16 15 14 13 12 11 11 12 12 11 8 6 5 5 6 7 6 6 6 5 7
2 3 4 6 5 4 5 4 2 2 3 3 6 8 8 6 4 4 2 4 3 1 8 14 16 17 18 20 20 14 6 4 9 16 19 21 21 22 23 22 20 19 18 17 17 18 17 17 17 17 17 17 16 15 14 12 11 12 14 14 13 14 15 15 15 15 14 14 13 11 11 11 11 12 13 12 10 9 8 7 6 5 5 6 5 5
2 2 4 6 5 6 6 4 2 4 4 4 8 9 7 5 4 2 2 5 2 3 9 15 17 18 19 19 15 7 3 7 16 22 23 23 23 23 21 20 19 18 17 17 16 16 15 14 13 14 14 15 14 12 11 10 9 9 10 9 9 9 11 11 11 12 11 11 11 9 8 8 8 9 9 9 9 8 8 8 7 6 7 7 6 4
1 1 3 4 4 4 5 4 3 4 4 8 11 8 4 3 1 2 4 3 2 4 9 14 16 18 19 17 12 7 6 13 21 25 23 22 24 23 22 20 19 18 17 17 16 15 14 14 13 12 13 13 12 11 10 8 7 7 8 6 5 6 7 7 8 8 7 7 8 7 7 6 6 6 6 6 5 4 4 4 3 3 4 4 3 2
2 2 4 3 1 2 5 4 4 4 5 13 12 5 4 4 2 2 5 2 3 6 8 13 15 17 18 15 9 8 10 17 21 22 22 22 22 21 21 20 20 19 17 16 15 13 13 14 14 13 13 11 10 10 9 8 6 7 7 6 5 5 6 6 6 7 6 6 6 6 6 6 5 5 5 5 5 4 3 3 3 2 3 3 3 3
3 3 1 2 2 2 5 3 1 2 6 12 10 4 5 7 4 3 4 2 5 7 8 11 14 16 17 13 9 9 13 18 19 17 17 19 20 20 19 19 19 19 17 15 14 12 11 12 12 12 11 10 9 9 8 7 6 5 5 5 5 5 5 5 6 6 7 7 7 7 7 7 7 6 6 6 6 5 4 4 4 2 2 3 3 3
4 4 3 3 4 3 3 4 5 4 5 8 8 7 7 7 5 3 3 1 4 7 8 10 13 16 16 13 12 12 14 18 20 18 15 15 16 17 17 17 17 17 16 15 14 12 10 11 12 11 10 10 9 8 7 6 5 4 4 3 3 4 4 5 5 6 6 7 8 8 9 9 8 9 8 7 5 4 4 4 3 3 3 2 2 2
4 4 4 2 4 6 8 8 6 6 7 8 8 8 8 8 6 3 1 1 4 7 7 8 12 15 15 15 14 13 14 18 21 20 18 17 17 16 17 17 17 16 16 15 14 13 12 11 11 10 10 10 9 8 6 5 4 3 3 3 3 3 4 4 4 5 5 6 7 8 8 8 8 9 9 8 6 4 3 3 3 3 3 2 2 3
2 2 2 1 3 3 4 7 7 7 8 8 9 10 11 11 10 6 3 3 4 5 6 8 12 14 14 17 18 16 16 17 18 19 20 21 21 21 21 20 18 17 16 14 13 12 12 11 11 9 8 9 8 7 6 5 4 3 3 3 3 3 4 5 5 5 5 6 6 7 7 6 6 6 7 7 5 3 2 3 2 1 2 3 1 1
1 2 0 2 2 2 5 7 7 8 11 12 11 11 13 13 13 10 7 6 5 5 6 8 11 13 15 20 23 18 13 15 19 21 23 24 22 21 22 21 20 19 16 14 13 12 11 10 9 8 8 8 7 6 6 5 4 3 3 3 3 4 5 6 6 6 6 6 6 7 7 6 4 4 3 4 6 5 4 3 2 2 2 3 2 2
1 1 1 2 3 5 7 6 5 6 10 13 13 13 13 13 13 12 10 9 8 7 6 6 7 10 12 18 23 19 14 15 17 18 22 25 25 24 23 23 22 20 17 15 12 11 10 9 8 7 8 8 7 6 5 5 4 4 3 3 3 3 5 6 7 7 7 7 6 6 6 6 5 5 3 2 3 5 6 5 5 4 3 4 4 5
2 1 1 2 3 4 5 5 3 3 6 10 12 12 12 12 12 13 12 10 9 8 7 6 5 6 8 13 19 20 18 16 14 15 19 23 26 28 26 24 23 20 17 15 13 11 10 8 7 7 8 8 8 8 7 6 6 5 5 5 4 3 4 5 6 6 6 7 7 7 6 5 6 7 6 4 2 2 5 6 7 7 6 6 6 7
3 4 4 2 3 6 7 6 6 5 8 10 10 11 12 12 12 14 14 12 10 8 6 5 5 5 7 10 14 18 19 16 14 17 21 23 27 30 28 25 23 21 18 16 14 12 10 8 7 8 9 9 10 10 9 9 8 8 7 7 6 5 5 5 6 5 4 5 6 7 7 6 6 8 8 8 7 5 3 3 5 5 6 7 8 8
Wind_Direction
185 194 197 201 203 197 203 214 217 275 297 225 208 215 183 163 140 121 127 153 163 182 198 197 188 161 171 177 173 181 188 188 177 169 171 171 170 171 170 170 171 173 171 169 170 169 171 172 171 172 172 173 174 178 191 194 187 180 176 178 179 177 175 170 164 158 155 155 157 159 156 154 154 150 148 147 146 151 157 155 150 144 142 139 136 133
189 203 199 201 198 186 211 218 224 262 250 218 211 202 179 158 136 116 132 150 162 198 191 182 183 162 169 176 172 185 198 193 182 173 172 173 174 175 172 170 170 173 170 168 169 170 172 173 172 173 173 176 180 183 189 191 189 181 177 183 185 183 177 171 169 163 156 156 159 156 151 154 160 153 148 151 152 154 161 158 152 149 147 145 142 140
193 210 200 198 188 178 235 225 225 247 220 211 209 204 192 152 136 109 128 148 166 215 175 165 186 163 163 179 177 189 200 195 188 181 175 172 174 177 175 170 170 172 171 170 171 172 173 174 174 174 175 179 182 185 186 187 188 182 180 186 189 190 179 168 166 160 154 155 156 155 154 157 161 157 155 162 161 159 163 161 157 156 152 150 147 144
191 208 199 191 187 208 218 212 217 235 228 212 197 207 202 163 159 137 155 158 161 233 180 167 181 150 162 180 184 195 201 207 202 188 181 176 175 179 178 173 171 173 172 171 173 174 175 175 177 178 178 180 183 187 189 188 187 184 183 186 187 190 184 170 162 157 156 158 159 158 156 158 162 162 163 167 165 163 167 167 165 164 159 155 150 146
189 192 190 185 194 214 213 203 209 223 217 205 201 213 199 184 189 131 144 152 150 168 153 158 166 160 177 187 185 189 196 214 224 192 190 185 180 179 179 175 173 175 173 173 176 176 176 176 179 182 181 182 185 189 191 190 189 187 184 183 183 186 184 174 164 160 161 161 163 165 160 160 164 165 167 169 169 171 172 172 171 170 166 159 152 152
184 152 180 187 192 210 219 207 208 224 218 195 175 165 185 210 156 119 140 155 170 179 161 166 190 188 182 197 188 169 178 197 203 201 199 189 184 183 180 177 175 177 176 176 177 177 176 177 179 182 183 184 187 190 192 191 192 191 185 182 181 180 180 175 168 166 165 164 167 168 162 161 165 168 172 171 172 176 173 173 178 177 173 166 159 161
165 151 187 197 194 202 220 217 203 219 241 204 144 131 241 233 163 144 163 176 201 151 151 175 212 164 178 207 193 168 175 189 199 209 203 190 187 186 183 181 179 179 178 178 179 178 177 177 178 183 185 185 186 188 190 190 195 194 186 181 179 178 179 178 176 174 173 170 166 162 160 162 164 168 174 172 172 174 171 175 182 182 179 174 168 170
154 161 186 197 202 203 213 217 191 205 244 184 119 125 271 235 185 183 193 198 202 86 127 171 197 91 183 213 187 180 181 185 199 210 203 194 192 190 187 185 183 182 180 179 179 179 179 179 180 184 186 187 186 187 187 188 196 197 188 183 181 178 178 181 183 182 180 176 165 159 159 160 159 166 176 175 174 176 175 178 181 181 183 180 175 177
164 180 183 193 206 207 211 212 181 203 232 78 113 152 259 232 201 207 213 210 185 150 157 178 181 157 181 204 179 187 192 191 199 205 200 196 195 194 192 188 186 185 183 183 182 182 181 182 184 184 186 187 185 186 187 186 193 198 190 185 185 182 180 183 187 188 185 178 167 160 159 160 160 162 168 174 178 180 180 180 181 181 181 181 178 178
173 194 189 199 207 207 213 209 174 213 226 96 142 188 231 215 203 214 227 219 191 221 216 178 185 194 158 187 183 191 203 201 198 200 201 199 197 198 196 192 190 188 187 188 186 186 186 185 185 184 185 187 186 187 188 185 191 197 193 187 186 185 183 183 187 190 187 182 174 165 162 162 164 162 163 171 177 178 179 180 183 184 182 183 182 181
145 179 193 213 221 219 221 204 184 225 219 138 163 182 192 188 191 218 228 225 212 231 202 168 183 196 168 194 196 193 201 195 189 187 194 199 199 200 199 194 193 191 190 192 189 189 190 188 186 185 186 188 187 188 188 187 189 194 195 190 186 186 186 184 185 188 188 187 182 175 170 166 166 168 166 169 174 176 178 178 180 185 185 186 186 184
153 181 190 212 227 236 236 203 191 214 198 185 187 179 181 175 190 209 195 213 224 220 173 158 176 195 206 224 205 196 190 183 187 183 176 188 197 201 201 196 192 191 191 193 192 190 190 189 187 186 189 190 190 190 190 190 190 193 197 192 187 188 187 185 185 187 189 190 187 182 179 174 171 169 167 168 172 174 176 176 177 180 182 185 187 186
190 200 192 198 213 221 230 212 190 195 192 204 205 188 198 195 196 207 194 213 212 175 179 169 174 196 205 165 180 191 192 184 192 192 176 181 194 200 200 196 191 190 191 193 193 194 193 191 188 188 190 191 195 198 196 193 191 195 199 196 191 191 189 189 188 188 190 191 190 187 184 183 178 171 168 168 171 173 173 175 178 180 180 182 185 185
196 206 203 205 206 208 223 220 190 191 196 207 205 195 208 204 200 211 202 214 208 168 174 165 173 200 167 137 148 174 182 176 186 194 185 187 198 203 201 198 192 189 191 192 194 196 196 193 190 190 192 195 203 208 202 196 194 198 202 199 195 193 192 193 192 191 193 193 193 192 189 190 186 178 174 172 173 179 177 177 180 181 183 183 182 185
203 208 200 203 200 191 210 227 218 199 198 208 206 204 221 222 218 223 207 221 219 177 156 155 179 208 154 157 143 149 169 169 177 188 182 188 200 205 206 203 197 192 191 194 196 197 199 197 193 193 196 200 210 212 203 197 199 204 207 202 197 196 195 196 196 194 195 196 196 197 195 194 192 186 184 182 182 185 184 185 185 182 183 184 185 187
224 231 176 193 200 188 200 219 228 214 201 205 205 208 223 225 228 248 258 264 256 167 160 179 194 83 121 163 159 151 173 175 178 180 173 180 192 198 202 203 202 199 193 196 199 199 202 201 198 200 201 202 209 211 201 200 206 210 211 207 199 199 199 198 198 196 196 198 199 200 200 199 198 194 192 191 187 184 186 189 188 186 183 183 186 189
230 230 146 181 198 195 200 206 210 218 211 200 205 210 219 227 237 250 243 253 277 237 187 196 198 131 135 165 165 169 181 175 179 180 177 180 183 187 193 195 200 203 199 200 201 202 205 205 203 204 204 202 204 205 204 209 213 212 212 209 202 201 201 200 199 196 196 199 200 202 202 202 203 200 196 196 192 188 191 190 184 188 191 188 187 186
246 216 150 178 197 196 204 205 204 218 226 213 205 208 217 240 252 254 239 215 229 232 197 193 210 185 167 179 171 178 182 173 178 182 183 185 183 185 190 188 192 198 198 199 202 205 206 207 207 207 206 205 204 206 211 219 219 213 211 209 204 202 200 201 201 199 198 199 200 203 204 202 203 203 198 199 198 193 193 192 185 189 196 197 193 187
265 249 153 178 196 187 196 207 203 210 222 232 227 210 212 224 226 223 235 235 225 230 214 191 210 216 206 180 167 178 182 171 172 179 185 188 186 188 188 185 184 185 185 188 198 205 207 207 210 209 206 205 205 206 210 216 216 212 210 208 204 203 201 200 202 203 202 200 201 204 205 203 202 202 200 200 203 198 193 194 193 194 195 196 199 197
240 256 164 171 186 175 182 206 207 197 206 228 242 221 212 226 230 217 228 249 241 232 224 194 198 210 191 145 156 166 171 168 171 178 185 190 190 190 189 185 183 185 188 187 191 200 206 206 207 209 209 205 203 203 203 211 214 209 206 206 204 202 202 201 201 205 206 201 203 206 205 204 202 202 201 202 205 202 197 198 196 195 196 193 196 199
216 245 197 157 165 177 187 203 210 197 190 205 223 215 205 220 232 224 229 241 250 241 229 214 203 148 65 72 146 148 157 165 169 175 184 191 192 190 190 187 185 190 197 196 191 195 203 205 204 208 211 203 197 198 202 212 217 211 204 202 203 204 204 203 201 203 207 205 206 209 207 205 205 203 202 204 206 204 201 202 198 195 197 195 193 194
211 235 224 169 167 198 205 197 208 215 201 199 211 213 207 212 218 212 217 221 229 244 242 238 226 106 73 352 134 132 156 163 160 168 180 188 189 187 187 187 186 187 192 193 192 192 195 203 206 207 209 203 197 200 205 209 214 215 208 201 203 209 210 209 205 204 208 207 208 210 208 207 207 206 204 203 206 204 202 204 202 199 199 199 199 196
227 251 241 216 189 201 183 181 210 239 222 206 212 216 209 212 217 215 214 210 210 224 231 241 239 106 88 246 149 136 143 139 147 161 165 172 179 182 181 182 184 184 184 186 189 191 190 198 206 207 210 211 207 205 209 212 214 215 211 205 206 211 212 211 209 210 211 210 210 210 208 207 208 209 206 204 206 205 204 205 205 205 202 200 204 204
202 241 233 238 230 223 105 159 208 241 232 217 215 216 214 215 219 222 225 218 207 211 215 231 230 127 117 191 158 134 129 130 147 157 159 159 160 169 174 178 184 187 188 189 192 196 198 200 206 211 215 218 217 214 214 219 219 209 204 210 213 213 213 213 213 215 214 210 209 209 208 208 208 209 209 207 207 207 206 205 206 209 206 201 204 207
198 224 217 220 214 200 189 189 200 208 217 224 219 214 216 220 221 222 221 215 215 216 220 236 231 128 143 175 152 138 143 144 147 151 159 156 143 149 162 171 182 191 195 201 206 208 210 210 209 211 219 224 225 223 222 225 225 210 200 213 219 216 215 215 214 214 211 208 205 202 204 207 208 210 211 210 210 210 209 207 207 210 208 205 205 204
210 230 229 228 214 197 197 198 195 196 203 219 223 214 212 219 222 217 212 218 222 208 209 238 237 127 145 171 159 157 163 149 145 147 140 131 130 132 138 152 169 182 191 201 211 217 219 221 220 217 221 227 228 228 227 229 230 219 209 216 222 220 220 220 216 212 208 206 203 199 200 203 205 209 212 212 212 211 211 209 209 211 209 207 207 206
224 228 233 255 256 251 266 295 221 201 199 203 212 211 211 217 219 214 214 223 224 216 218 229 215 150 161 176 171 167 164 153 149 143 128 120 124 129 132 142 156 171 185 193 201 211 217 221 225 225 225 229 229 226 226 227 227 221 216 221 225 223 223 224 220 215 211 208 208 206 205 205 204 206 209 212 212 211 212 211 209 211 213 211 212 211
234 214 212 252 266 281 306 321 316 223 206 201 204 207 208 212 217 220 224 223 217 231 233 195 183 186 171 168 174 169 158 158 151 135 126 123 122 128 137 149 161 178 197 201 201 207 212 215 219 223 225 227 223 218 221 223 221 216 214 220 224 222 222 224 222 218 215 214 215 215 213 212 210 206 207 209 210 210 212 212 209 209 209 210 212 214
249 211 199 236 239 230 237 228 217 210 205 205 208 208 206 207 211 216 224 224 219 233 247 182 193 203 157 153 165 162 154 156 146 131 128 128 119 119 122 122 132 153 188 210 212 214 216 215 216 218 219 219 213 206 207 209 211 215 214 212 214 216 216 217 214 212 214 216 217 219 219 217 215 212 210 211 213 214 215 216 218 217 215 215 214 215
267 209 221 247 209 160 167 178 183 193 186 179 188 199 206 211 214 218 220 217 220 252 273 216 191 155 132 145 153 156 153 145 135 131 132 131 123 118 117 110 104 108 131 192 216 218 217 214 210 207 206 209 212 211 206 199 199 210 210 201 202 209 213 212 207 204 210 215 217 221 222 219 218 216 214 214 216 218 219 221 224 226 228 229 225 221
251 210 239 250 196 156 151 167 171 175 163 143 113 78 100 201 203 212 206 181 199 233 217 186 161 118 121 139 144 152 151 139 137 138 130 129 128 120 115 110 106 105 109 122 145 179 201 204 199 191 190 199 207 209 207 205 204 206 205 199 196 200 208 212 208 202 203 209 214 218 219 218 220 219 216 217 217 217 219 220 221 225 229 233 234 232
250 220 225 237 203 166 137 179 175 168 161 139 84 40 16 49 172 180 164 161 211 208 178 170 159 130 134 141 143 148 148 146 150 143 131 133 133 123 113 107 107 105 101 108 120 133 156 175 178 178 182 188 193 193 195 201 203 201 201 201 199 200 202 204 206 203 202 204 207 208 209 214 222 225 222 223 223 221 222 221 219 221 223 226 229 232
257 226 216 251 217 178 164 199 183 177 181 161 47 10 353 2 95 132 112 82 4 248 181 181 128 124 137 144 145 148 150 152 148 139 138 138 127 118 114 108 104 101 98 101 107 116 133 148 154 161 169 173 179 183 183 189 195 195 200 205 205 209 215 215 213 208 206 210 212 213 215 218 226 230 226 229 232 230 229 228 225 224 226 225 226 228
255 228 219 267 235 191 173 203 193 196 198 170 24 359 345 358 11 73 90 64 27 18 46 71 97 123 138 144 147 147 144 142 137 132 134 132 124 117 114 110 106 102 97 97 100 104 115 127 132 138 147 152 160 169 172 180 190 195 203 208 203 205 215 221 220 213 210 215 218 223 229 232 231 226 219 221 229 229 227 228 227 227 229 230 228 229
253 216 201 239 237 206 244 226 206 201 167 82 43 25 22 27 54 80 81 62 43 55 77 95 114 129 138 140 140 139 134 130 129 126 123 127 129 124 117 116 115 111 106 100 99 98 101 108 114 115 118 122 128 136 144 154 165 173 181 188 187 188 199 210 215 213 211 216 219 221 226 230 229 227 223 217 217 221 219 217 217 220 223 225 224 224
287 195 177 221 234 220 243 231 196 177 109 100 87 40 29 53 81 100 102 75 51 61 97 114 126 130 134 138 138 136 131 125 120 116 117 125 130 126 122 122 119 117 115 110 105 103 102 102 103 102 101 104 108 112 118 126 134 141 144 145 145 151 164 180 188 184 183 194 201 202 205 210 212 217 222 220 221 230 225 214 214 220 222 225 224 221
319 228 182 197 195 224 230 203 135 167 164 132 103 32 11 18 11 333 118 86 46 18 109 124 136 135 137 141 140 138 134 126 116 112 118 124 125 125 126 125 121 117 115 112 109 108 107 103 101 100 99 99 99 97 99 107 114 117 118 117 118 122 130 140 144 143 147 157 167 174 177 174 173 186 202 210 219 229 222 207 207 215 216 220 221 217
334 319 214 197 158 232 229 199 168 191 177 93 61 32 11 8 359 323 311 92 49 24 121 138 145 144 146 148 144 143 142 134 122 124 132 129 125 129 131 127 123 121 117 115 112 108 107 105 103 101 98 95 94 92 91 94 98 103 107 108 111 118 124 126 125 123 124 123 120 125 125 109 108 131 160 180 194 209 210 208 206 199 195 200 209 211
264 239 220 212 187 197 228 221 201 199 174 48 17 3 352 341 317 274 239 100 71 83 138 148 150 149 152 152 150 154 158 147 133 139 142 136 131 134 134 127 124 125 121 118 116 113 112 112 108 104 99 95 93 92 92 93 93 95 99 102 110 117 118 117 117 116 113 109 105 106 105 95 90 95 105 114 120 131 168 196 197 186 184 191 209 228
209 194 203 214 195 187 227 231 161 117 89 35 334 327 330 320 272 235 194 78 58 171 153 152 155 155 157 156 157 164 170 137 145 150 146 140 136 137 135 130 129 129 124 120 119 116 112 111 109 108 105 102 98 96 96 97 96 94 95 101 109 113 113 114 116 116 114 110 107 106 104 99 95 95 98 102 108 113 121 127 125 120 121 132 162 206
178 195 209 218 196 185 213 213 123 94 75 7 323 326 331 307 266 223 63 44 5 207 156 154 161 160 158 159 159 151 68 102 139 149 148 144 141 140 138 135 133 130 128 128 126 119 114 113 113 113 110 106 104 103 101 100 99 95 97 107 114 112 112 114 115 116 116 112 108 104 103 104 103 102 104 108 108 110 110 107 103 103 106 108 114 132
177 188 198 219 212 192 203 197 152 122 55 346 319 325 347 303 217 83 26 1 251 195 154 155 165 162 158 158 150 130 118 128 137 144 148 147 145 143 140 137 134 132 133 134 130 126 124 122 118 113 108 105 107 110 109 109 113 109 107 117 131 130 125 124 125 126 123 117 114 112 111 114 117 120 124 120 112 107 109 112 115 117 119 119 116 116
340 262 184 184 238 211 204 203 180 146 37 353 329 327 19 11 22 6 346 357 163 168 155 157 165 163 159 153 124 105 132 139 138 142 145 145 144 143 140 138 138 138 138 135 132 131 128 125 121 116 112 112 113 111 110 114 123 123 121 130 145 147 145 146 149 149 148 145 145 145 143 143 145 154 158 152 150 159 161 159 167 154 124 125 141 162
360 325 142 101 19 249 211 190 102 75 16 3 359 21 27 6 345 317 332 52 132 154 158 159 164 164 160 147 108 96 122 131 132 135 139 142 145 143 140 141 142 140 138 135 132 132 129 126 124 120 116 114 109 104 105 110 114 118 126 138 147 149 151 155 158 160 164 166 167 170 172 169 167 172 175 173 170 177 185 181 172 163 145 131 135 147
31 352 350 36 41 42 70 79 71 51 25 25 37 44 24 2 356 352 345 24 128 142 152 161 165 168 166 151 126 114 123 132 136 138 138 141 144 143 143 146 145 141 141 140 135 132 130 124 118 113 111 109 104 100 100 104 108 116 130 146 156 157 158 161 161 162 164 165 167 174 179 183 185 184 184 187 179 170 187 204 206 207 208 202 201 206
43 322 311 8 94 89 74 74 81 66 50 52 56 51 39 27 25 32 5 22 119 135 147 159 163 167 171 168 154 135 129 136 140 143 148 152 154 155 154 151 150 150 150 147 140 133 128 121 112 108 107 104 99 95 92 92 100 112 130 152 169 181 186 182 175 173 172 169 170 172 173 179 189 192 193 196 191 177 176 179 193 215 213 202 232 239
84 291 296 101 143 144 95 83 81 67 57 56 57 53 47 40 40 45 51 58 86 117 131 145 157 159 160 165 161 140 127 137 146 153 164 169 170 174 175 169 165 165 162 156 145 134 126 117 108 104 103 99 95 94 91 87 88 94 110 134 151 175 193 196 194 191 188 186 185 179 174 176 182 187 192 189 175 164 176 171 166 185 152 130 152 211
102 267 212 98 89 97 102 102 97 83 69 57 50 48 41 38 42 49 55 61 70 93 112 132 153 152 147 158 162 153 148 167 174 174 180 182 181 183 185 183 181 178 173 164 151 137 128 120 112 109 107 102 98 94 91 89 88 88 93 106 128 152 171 185 197 201 198 200 199 195 194 194 174 156 171 183 168 162 169 166 156 163 165 167 180 171
246 233 127 114 115 109 112 117 130 123 91 61 49 47 42 39 46 53 59 66 71 82 97 115 149 157 157 170 176 174 173 181 184 183 185 189 190 191 190 190 190 187 179 167 155 145 138 129 121 119 114 109 105 102 97 95 94 93 92 89 104 133 149 163 180 193 200 205 206 204 205 205 189 166 143 136 191 212 217 200 184 192 217 231 231 223
265 186 92 192 173 133 108 90 81 118 94 60 46 46 45 45 53 59 61 65 68 75 86 97 125 150 159 174 183 185 184 185 191 196 196 198 201 200 198 196 195 191 183 171 163 159 155 144 134 129 122 114 109 104 99 95 92 89 89 88 94 114 135 145 152 167 186 197 203 205 201 201 210 205 181 146 143 231 242 226 213 214 233 255 260 255
360 29 20 2 81 81 81 70 52 66 81 67 51 50 50 48 53 58 58 58 60 62 68 81 105 128 142 159 178 193 200 201 200 201 205 210 211 207 204 202 199 195 189 182 179 177 172 161 151 141 130 121 117 109 101 95 87 80 77 74 78 90 110 130 137 140 161 185 197 202 198 196 214 221 208 194 184 169 171 235 255 250 246 250 255 259
Height
1520 1523 1523 1521 1517 1514 1514 1513 1513 1513 1514 1517 1518 1519 1522 1525 1527 1527 1530 1530 1531 1540 1543 1540 1542 1547 1548 1545 1545 1547 1548 1548 1549 1550 1552 1554 1557 1559 1561 1564 1567 1569 1571 1573 1575 1576 1578 1579 1581 1582 1583 1584 1585 1586 1587 1588 1589 1590 1591 1593 1593 1594 1596 1597 1598 1599 1599 1600 1601 1602 1603 1604 1605 1606 1606 1607 1608 1610 1610 1611 1611 1612 1613 1614 1614 1615
1520 1522 1520 1515 1511 1511 1512 1512 1512 1514 1515 1517 1518 1520 1522 1526 1528 1526 1528 1530 1531 1537 1539 1538 1543 1547 1547 1546 1546 1548 1548 1547 1547 1549 1551 1553 1556 1558 1560 1563 1566 1569 1571 1573 1574 1576 1577 1579 1580 1582 1583 1584 1585 1586 1587 1588 1589 1590 1591 1592 1593 1594 1595 1597 1598 1599 1600 1600 1601 1602 1604 1605 1605 1606 1607 1608 1609 1610 1611 1611 1612 1613 1613 1614 1615 1616
1522 1519 1513 1509 1508 1513 1515 1513 1515 1515 1516 1518 1520 1523 1525 1524 1528 1530 1529 1530 1532 1535 1537 1539 1545 1548 1546 1546 1547 1548 1548 1546 1547 1548 1550 1552 1554 1557 1559 1562 1565 1568 1570 1571 1574 1575 1577 1578 1580 1581 1582 1584 1585 1585 1587 1588 1589 1590 1591 1592 1593 1594 1595 1597 1598 1599 1600 1600 1601 1602 1603 1605 1606 1606 1607 1608 1609 1610 1611 1611 1612 1613 1614 1615 1615 1616
1521 1515 1508 1508 1511 1516 1517 1515 1517 1517 1515 1516 1518 1524 1525 1520 1528 1540 1537 1532 1533 1533 1535 1539 1545 1548 1547 1547 1548 1550 1549 1547 1548 1549 1550 1552 1554 1556 1558 1561 1564 1566 1569 1570 1572 1574 1576 1578 1579 1581 1582 1583 1585 1586 1586 1587 1589 1590 1591 1592 1593 1594 1595 1596 1598 1598 1599 1600 1601 1602 1603 1604 1605 1606 1607 1608 1609 1610 1611 1612 1612 1613 1614 1615 1616 1617
1514 1509 1505 1509 1514 1516 1517 1517 1517 1518 1515 1513 1514 1520 1522 1518 1522 1532 1534 1533 1535 1535 1535 1540 1550 1552 1549 1550 1551 1550 1550 1549 1549 1550 1551 1552 1554 1556 1558 1560 1563 1565 1568 1570 1571 1573 1575 1577 1579 1580 1582 1583 1584 1585 1586 1587 1588 1589 1590 1592 1593 1594 1595 1596 1597 1598 1599 1600 1601 1602 1603 1604 1605 1606 1607 1608 1609 1610 1611 1612 1613 1613 1614 1615 1616 1617
1509 1508 1509 1512 1516 1516 1517 1517 1515 1516 1514 1513 1515 1516 1518 1518 1519 1524 1528 1531 1536 1539 1536 1540 1557 1559 1549 1550 1550 1548 1549 1550 1549 1549 1550 1552 1554 1556 1558 1559 1562 1565 1567 1569 1570 1572 1574 1576 1578 1580 1581 1583 1584 1585 1586 1587 1588 1589 1590 1591 1592 1594 1595 1596 1597 1598 1599 1600 1601 1602 1603 1604 1605 1606 1607 1608 1609 1610 1611 1612 1613 1613 1614 1615 1616 1617
1505 1509 1511 1513 1515 1516 1518 1516 1513 1513 1513 1513 1514 1515 1518 1518 1520 1524 1526 1529 1533 1534 1530 1534 1552 1561 1553 1549 1546 1545 1548 1549 1549 1549 1548 1551 1553 1555 1557 1559 1561 1563 1566 1568 1570 1572 1574 1576 1578 1579 1580 1582 1584 1584 1586 1587 1588 1589 1590 1591 1592 1594 1595 1596 1597 1598 1599 1600 1601 1602 1603 1605 1606 1606 1607 1608 1609 1610 1611 1612 1613 1613 1614 1615 1616 1617
1505 1511 1512 1513 1515 1516 1519 1516 1511 1512 1516 1515 1512 1516 1520 1518 1521 1523 1522 1525 1527 1527 1532 1533 1542 1555 1556 1548 1542 1542 1548 1551 1550 1548 1547 1549 1552 1554 1556 1558 1559 1562 1564 1567 1569 1571 1573 1575 1577 1578 1580 1581 1583 1584 1585 1586 1587 1588 1589 1591 1592 1593 1595 1596 1597 1598 1599 1601 1601 1603 1604 1605 1606 1607 1607 1608 1609 1610 1611 1612 1613 1614 1615 1615 1616 1617
1507 1512 1513 1513 1516 1516 1515 1511 1509 1512 1516 1515 1513 1516 1518 1517 1519 1518 1518 1521 1521 1528 1540 1537 1537 1553 1558 1545 1539 1542 1548 1553 1551 1546 1546 1547 1550 1553 1554 1557 1558 1560 1563 1565 1568 1570 1572 1574 1576 1578 1579 1581 1583 1584 1585 1586 1587 1588 1589 1590 1592 1593 1595 1596 1597 1598 1599 1601 1602 1603 1604 1604 1605 1606 1607 1608 1609 1610 1611 1612 1613 1614 1615 1615 1616 1617
1508 1510 1510 1511 1514 1513 1510 1506 1508 1513 1514 1512 1513 1515 1515 1515 1516 1517 1519 1519 1523 1534 1540 1535 1535 1551 1559 1549 1543 1545 1545 1547 1547 1545 1545 1546 1549 1552 1552 1556 1558 1559 1562 1564 1567 1570 1571 1574 1575 1577 1579 1580 1582 1583 1585 1586 1587 1588 1588 1590 1591 1593 1595 1596 1597 1598 1599 1601 1602 1603 1604 1604 1605 1606 1607 1608 1609 1610 1611 1612 1613 1613 1614 1615 1616 1617
1507 1508 1509 1509 1510 1508 1505 1506 1510 1512 1512 1511 1513 1517 1519 1519 1518 1520 1518 1518 1533 1541 1529 1525 1530 1540 1556 1553 1543 1543 1539 1538 1542 1543 1545 1546 1548 1551 1552 1554 1556 1558 1561 1563 1566 1568 1571 1573 1574 1577 1578 1580 1582 1583 1584 1586 1586 1587 1588 1589 1591 1592 1594 1595 1597 1598 1599 1600 1602 1603 1604 1604 1605 1606 1607 1608 1609 1610 1611 1611 1613 1613 1614 1615 1616 1617
1509 1512 1510 1508 1508 1507 1507 1510 1512 1510 1511 1513 1516 1521 1528 1529 1526 1527 1525 1525 1542 1545 1523 1517 1525 1535 1553 1552 1538 1535 1532 1531 1536 1539 1542 1545 1547 1549 1550 1552 1554 1557 1560 1562 1565 1567 1569 1572 1573 1576 1578 1579 1581 1582 1583 1585 1586 1587 1588 1589 1591 1592 1593 1595 1596 1598 1599 1600 1601 1602 1603 1604 1605 1606 1607 1608 1609 1610 1611 1611 1612 1613 1614 1615 1615 1616
1510 1509 1507 1508 1508 1509 1511 1513 1513 1512 1512 1515 1516 1523 1535 1541 1542 1543 1541 1533 1536 1540 1527 1516 1522 1532 1541 1538 1530 1530 1528 1527 1531 1534 1538 1542 1544 1547 1549 1551 1553 1555 1558 1560 1563 1566 1567 1570 1572 1574 1577 1578 1580 1581 1582 1585 1586 1587 1587 1588 1590 1591 1593 1594 1596 1597 1598 1600 1601 1602 1603 1604 1605 1606 1607 1608 1609 1609 1610 1611 1612 1613 1613 1614 1615 1616
1512 1509 1505 1509 1508 1507 1509 1511 1514 1514 1514 1515 1516 1524 1534 1541 1550 1550 1542 1534 1534 1536 1526 1514 1521 1531 1531 1529 1525 1525 1526 1527 1529 1532 1536 1539 1542 1546 1547 1549 1552 1553 1557 1559 1562 1565 1566 1568 1571 1573 1575 1577 1578 1580 1582 1584 1585 1586 1587 1588 1589 1591 1592 1594 1595 1596 1598 1599 1601 1602 1603 1604 1605 1606 1606 1607 1609 1609 1610 1611 1612 1613 1613 1614 1615 1616
1514 1513 1504 1505 1506 1504 1506 1506 1506 1508 1511 1511 1509 1518 1525 1527 1538 1540 1533 1534 1534 1530 1524 1519 1525 1529 1531 1531 1524 1521 1524 1527 1530 1532 1534 1538 1540 1544 1546 1548 1551 1552 1555 1558 1560 1563 1565 1568 1570 1572 1574 1576 1577 1579 1581 1583 1584 1585 1586 1587 1589 1590 1592 1593 1594 1596 1597 1599 1600 1601 1603 1604 1605 1606 1606 1607 1608 1609 1610 1611 1611 1612 1613 1614 1615 1615
1509 1508 1495 1496 1499 1499 1504 1503 1499 1504 1511 1509 1505 1515 1521 1514 1518 1524 1523 1520 1519 1527 1530 1524 1520 1518 1523 1526 1520 1521 1525 1525 1530 1532 1532 1537 1539 1542 1546 1547 1549 1551 1553 1556 1558 1561 1564 1566 1569 1571 1573 1574 1576 1577 1579 1581 1583 1584 1586 1587 1588 1590 1591 1593 1594 1595 1597 1598 1599 1601 1602 1603 1604 1605 1606 1607 1608 1609 1610 1610 1611 1612 1613 1613 1614 1615
1509 1504 1492 1495 1498 1496 1501 1501 1498 1504 1509 1508 1509 1516 1512 1503 1507 1518 1522 1515 1517 1536 1534 1519 1518 1516 1520 1526 1520 1521 1525 1523 1527 1531 1531 1535 1537 1540 1543 1544 1547 1550 1551 1554 1556 1560 1562 1565 1567 1569 1571 1573 1574 1576 1578 1579 1581 1583 1585 1586 1588 1589 1591 1592 1593 1595 1596 1598 1599 1600 1601 1603 1604 1605 1606 1607 1608 1609 1609 1610 1611 1612 1612 1613 1614 1615
1503 1502 1493 1496 1500 1497 1496 1498 1498 1498 1500 1505 1511 1511 1504 1505 1508 1512 1524 1526 1528 1538 1527 1514 1521 1519 1521 1533 1526 1520 1524 1523 1524 1527 1529 1532 1535 1538 1541 1542 1545 1548 1550 1552 1554 1558 1560 1563 1566 1567 1569 1572 1573 1575 1576 1577 1580 1582 1584 1585 1587 1588 1590 1591 1593 1594 1596 1597 1598 1599 1600 1602 1603 1604 1606 1607 1608 1608 1609 1609 1610 1611 1612 1613 1614 1614
1500 1503 1496 1494 1498 1497 1494 1498 1502 1499 1497 1500 1504 1501 1504 1516 1519 1514 1524 1532 1533 1537 1527 1519 1522 1516 1515 1526 1525 1521 1522 1521 1522 1524 1527 1529 1532 1535 1538 1540 1543 1545 1548 1550 1552 1556 1558 1561 1564 1565 1568 1570 1571 1573 1575 1576 1578 1580 1583 1585 1586 1588 1589 1591 1592 1593 1595 1596 1598 1599 1600 1601 1602 1603 1605 1606 1607 1607 1608 1609 1610 1611 1611 1612 1613 1614
1499 1504 1500 1492 1492 1494 1496 1499 1502 1501 1499 1500 1501 1498 1499 1509 1513 1512 1517 1520 1526 1534 1531 1526 1525 1517 1510 1512 1515 1517 1517 1517 1521 1523 1524 1527 1529 1533 1536 1539 1541 1543 1546 1548 1551 1554 1556 1559 1561 1563 1566 1568 1570 1572 1573 1575 1577 1579 1582 1583 1585 1587 1588 1590 1591 1592 1594 1595 1597 1598 1599 1600 1601 1603 1604 1605 1606 1606 1608 1609 1609 1610 1611 1612 1613 1613
1498 1502 1502 1495 1492 1496 1499 1498 1496 1497 1500 1504 1506 1505 1505 1506 1505 1509 1513 1509 1515 1527 1528 1530 1531 1519 1511 1510 1510 1512 1513 1514 1519 1521 1523 1526 1528 1531 1535 1537 1539 1541 1544 1547 1550 1552 1555 1557 1559 1561 1564 1566 1569 1571 1572 1574 1575 1577 1580 1582 1584 1586 1587 1589 1590 1592 1593 1594 1596 1597 1598 1599 1600 1602 1603 1604 1605 1606 1607 1608 1609 1610 1611 1611 1612 1612
1498 1499 1500 1497 1497 1498 1495 1489 1487 1489 1491 1497 1502 1501 1504 1505 1505 1517 1524 1512 1509 1517 1519 1525 1531 1523 1515 1513 1511 1511 1513 1514 1517 1521 1523 1524 1527 1530 1533 1536 1538 1540 1543 1546 1548 1551 1554 1555 1557 1560 1562 1564 1567 1568 1570 1572 1574 1576 1579 1581 1583 1584 1585 1587 1589 1590 1592 1593 1595 1596 1597 1599 1600 1601 1602 1603 1604 1605 1607 1607 1608 1609 1610 1610 1611 1612
1495 1498 1499 1497 1493 1491 1487 1484 1484 1485 1484 1488 1494 1492 1494 1498 1500 1514 1524 1513 1508 1512 1510 1512 1523 1526 1521 1516 1513 1514 1515 1516 1519 1522 1523 1524 1527 1529 1532 1535 1537 1539 1542 1544 1547 1549 1552 1554 1555 1558 1560 1562 1565 1566 1568 1571 1572 1575 1577 1579 1581 1582 1584 1586 1587 1589 1590 1591 1593 1595 1596 1598 1599 1600 1601 1602 1604 1604 1606 1607 1607 1608 1609 1610 1611 1611
1498 1499 1501 1500 1492 1486 1485 1485 1485 1487 1487 1489 1490 1487 1489 1493 1493 1498 1504 1504 1507 1512 1511 1513 1522 1526 1523 1519 1518 1518 1518 1521 1523 1524 1525 1526 1527 1529 1532 1535 1537 1539 1542 1543 1546 1548 1550 1552 1554 1556 1559 1561 1563 1565 1567 1569 1571 1574 1576 1577 1579 1581 1583 1585 1586 1588 1589 1590 1592 1593 1595 1596 1597 1599 1600 1601 1603 1603 1605 1606 1606 1607 1608 1609 1610 1611
1500 1500 1501 1504 1505 1501 1499 1498 1495 1492 1492 1492 1489 1485 1486 1488 1488 1491 1495 1501 1510 1509 1508 1518 1526 1526 1523 1520 1521 1521 1521 1523 1524 1524 1527 1527 1528 1530 1532 1534 1537 1539 1541 1543 1545 1547 1549 1551 1553 1555 1558 1559 1561 1563 1565 1567 1569 1572 1574 1576 1577 1579 1581 1583 1584 1586 1588 1589 1590 1592 1594 1595 1596 1598 1599 1600 1602 1602 1604 1605 1606 1606 1607 1608 1609 1610
1499 1500 1499 1504 1509 1511 1509 1504 1497 1492 1492 1491 1486 1484 1486 1486 1487 1494 1500 1509 1515 1510 1508 1516 1521 1523 1523 1520 1521 1523 1522 1523 1524 1525 1527 1528 1530 1531 1532 1534 1537 1538 1540 1542 1545 1547 1549 1551 1553 1555 1557 1558 1560 1562 1564 1565 1567 1569 1572 1574 1575 1577 1579 1581 1583 1585 1586 1588 1589 1591 1592 1594 1595 1596 1598 1599 1600 1601 1602 1603 1604 1605 1605 1606 1608 1608
1498 1499 1499 1501 1503 1503 1501 1496 1487 1485 1489 1491 1489 1488 1489 1488 1488 1494 1503 1509 1510 1510 1511 1510 1510 1517 1523 1521 1521 1523 1523 1524 1525 1526 1528 1530 1531 1533 1533 1535 1537 1538 1540 1542 1544 1546 1548 1550 1552 1554 1556 1557 1559 1560 1562 1564 1566 1568 1570 1571 1573 1576 1577 1579 1581 1583 1585 1587 1588 1589 1590 1592 1593 1595 1596 1597 1599 1600 1601 1602 1603 1604 1604 1605 1606 1607
1499 1500 1499 1500 1499 1496 1494 1492 1487 1484 1485 1487 1489 1489 1489 1489 1489 1494 1500 1502 1503 1511 1515 1508 1504 1511 1516 1516 1519 1522 1523 1524 1525 1526 1530 1532 1533 1534 1534 1536 1537 1538 1540 1541 1543 1545 1546 1548 1550 1552 1554 1556 1557 1559 1560 1562 1564 1567 1568 1570 1572 1574 1575 1577 1579 1581 1583 1584 1586 1587 1588 1590 1591 1592 1594 1595 1596 1598 1599 1600 1601 1602 1603 1603 1604 1605
1497 1499 1497 1495 1495 1493 1491 1490 1488 1486 1484 1484 1485 1486 1486 1488 1490 1495 1498 1497 1499 1508 1511 1507 1504 1507 1509 1513 1518 1520 1522 1525 1525 1528 1532 1533 1534 1535 1535 1536 1538 1539 1540 1541 1542 1543 1545 1547 1548 1550 1552 1554 1555 1556 1557 1560 1563 1565 1567 1568 1570 1572 1573 1575 1577 1578 1580 1582 1583 1585 1586 1588 1589 1590 1592 1593 1594 1595 1597 1598 1599 1599 1600 1601 1602 1603
1497 1499 1497 1494 1494 1492 1490 1489 1488 1486 1486 1487 1488 1487 1487 1487 1489 1493 1495 1495 1499 1504 1505 1506 1507 1506 1507 1512 1517 1519 1522 1525 1527 1530 1532 1533 1535 1536 1537 1538 1539 1540 1540 1541 1542 1543 1545 1546 1547 1549 1550 1551 1552 1553 1555 1557 1561 1564 1566 1567 1568 1571 1572 1574 1576 1577 1578 1579 1581 1583 1584 1586 1587 1588 1589 1591 1592 1593 1594 1596 1597 1597 1598 1599 1600 1601
1498 1500 1497 1493 1495 1495 1491 1488 1488 1488 1490 1494 1495 1494 1492 1492 1493 1495 1496 1499 1506 1510 1507 1507 1508 1508 1509 1511 1515 1521 1523 1525 1528 1531 1532 1534 1536 1537 1538 1540 1540 1541 1542 1542 1542 1543 1544 1545 1546 1547 1548 1549 1550 1552 1553 1555 1558 1562 1564 1565 1567 1569 1571 1573 1574 1575 1576 1577 1579 1581 1582 1584 1585 1585 1587 1588 1590 1591 1592 1593 1594 1595 1596 1597 1597 1598
1497 1499 1495 1494 1499 1499 1493 1491 1491 1490 1491 1495 1499 1500 1499 1497 1498 1499 1499 1502 1506 1506 1504 1504 1505 1508 1510 1511 1517 1522 1524 1526 1529 1531 1533 1535 1537 1538 1540 1541 1542 1543 1543 1543 1543 1543 1543 1545 1545 1545 1546 1548 1549 1551 1552 1554 1556 1560 1562 1563 1565 1567 1569 1571 1572 1573 1574 1575 1577 1580 1581 1582 1583 1584 1585 1586 1587 1588 1590 1591 1592 1592 1593 1594 1595 1596
1497 1498 1496 1497 1503 1501 1495 1494 1492 1492 1500 1505 1504 1505 1504 1501 1499 1499 1499 1501 1501 1499 1501 1502 1502 1505 1508 1512 1518 1523 1525 1527 1529 1531 1534 1536 1537 1539 1541 1542 1543 1544 1544 1544 1544 1544 1544 1545 1545 1545 1545 1546 1548 1550 1551 1554 1555 1557 1561 1563 1564 1565 1567 1569 1571 1572 1572 1573 1575 1577 1580 1582 1583 1583 1583 1584 1585 1586 1587 1588 1589 1590 1591 1591 1593 1593
1498 1498 1497 1499 1504 1502 1496 1493 1495 1502 1513 1514 1507 1504 1504 1502 1501 1501 1502 1503 1502 1500 1501 1501 1502 1506 1510 1514 1520 1524 1526 1528 1531 1533 1536 1537 1539 1541 1542 1543 1544 1545 1546 1546 1546 1546 1546 1546 1546 1546 1546 1546 1548 1549 1552 1554 1555 1556 1560 1563 1563 1563 1565 1568 1570 1571 1571 1572 1573 1575 1577 1580 1581 1581 1581 1582 1583 1584 1585 1586 1586 1587 1588 1589 1590 1591
1497 1497 1499 1500 1502 1501 1497 1499 1512 1521 1517 1510 1505 1503 1503 1502 1501 1503 1505 1506 1504 1503 1504 1505 1507 1510 1513 1517 1522 1525 1527 1531 1533 1535 1537 1539 1540 1541 1543 1544 1545 1546 1548 1548 1548 1548 1549 1549 1550 1549 1548 1549 1549 1550 1552 1554 1555 1557 1561 1562 1562 1562 1563 1566 1568 1569 1570 1571 1572 1573 1574 1577 1578 1579 1579 1580 1582 1583 1583 1584 1584 1585 1586 1586 1587 1588
1497 1497 1501 1502 1502 1504 1503 1508 1523 1526 1512 1506 1507 1505 1503 1503 1502 1505 1508 1509 1508 1506 1507 1509 1511 1514 1517 1521 1524 1527 1529 1532 1535 1537 1539 1540 1541 1543 1544 1545 1546 1547 1548 1549 1549 1550 1551 1552 1552 1551 1551 1551 1551 1552 1553 1555 1557 1558 1560 1561 1561 1561 1563 1566 1567 1568 1569 1571 1571 1572 1573 1575 1575 1575 1576 1578 1580 1582 1582 1582 1582 1583 1584 1585 1586 1586
1497 1497 1500 1503 1506 1509 1508 1509 1518 1523 1515 1510 1511 1508 1507 1508 1507 1507 1510 1513 1511 1507 1508 1512 1515 1518 1521 1523 1525 1528 1530 1533 1536 1540 1541 1542 1543 1545 1545 1546 1548 1549 1549 1550 1551 1552 1552 1553 1554 1553 1553 1553 1553 1554 1556 1557 1558 1558 1559 1560 1561 1562 1564 1566 1567 1568 1569 1570 1571 1572 1574 1576 1575 1574 1574 1577 1579 1582 1582 1582 1582 1581 1581 1583 1584 1584
1499 1498 1499 1505 1509 1509 1509 1510 1518 1526 1524 1516 1512 1511 1509 1510 1509 1508 1511 1516 1514 1510 1511 1515 1518 1520 1523 1524 1526 1528 1529 1533 1538 1541 1543 1544 1545 1546 1547 1548 1549 1550 1551 1552 1552 1553 1554 1554 1555 1556 1555 1554 1555 1556 1558 1559 1559 1560 1560 1562 1562 1564 1566 1567 1568 1569 1569 1570 1571 1573 1575 1577 1577 1575 1575 1577 1579 1581 1582 1583 1582 1580 1579 1581 1583 1583
1499 1498 1498 1502 1507 1508 1510 1511 1516 1523 1523 1516 1513 1513 1511 1511 1510 1508 1514 1521 1518 1512 1514 1517 1519 1522 1524 1525 1527 1528 1527 1531 1537 1541 1544 1545 1546 1547 1548 1550 1551 1552 1553 1554 1554 1555 1556 1556 1557 1558 1557 1557 1558 1559 1561 1562 1562 1563 1564 1564 1565 1567 1568 1569 1570 1570 1571 1572 1573 1574 1576 1578 1577 1576 1576 1577 1577 1578 1581 1582 1582 1580 1579 1579 1581 1583
1500 1499 1499 1502 1506 1508 1509 1509 1511 1517 1521 1518 1515 1514 1513 1512 1508 1511 1521 1526 1519 1514 1516 1519 1521 1524 1525 1526 1527 1527 1526 1529 1534 1539 1542 1545 1547 1549 1550 1551 1553 1555 1555 1556 1557 1557 1557 1558 1559 1559 1560 1560 1561 1562 1563 1564 1565 1565 1566 1567 1568 1569 1570 1571 1571 1572 1573 1573 1574 1575 1576 1577 1578 1577 1577 1578 1579 1580 1581 1582 1582 1580 1578 1578 1581 1584
1503 1501 1501 1503 1504 1506 1509 1511 1512 1516 1518 1518 1517 1515 1514 1512 1511 1517 1525 1524 1518 1517 1518 1520 1523 1525 1525 1526 1527 1528 1529 1530 1533 1538 1542 1544 1546 1549 1552 1553 1555 1556 1558 1558 1559 1559 1560 1561 1561 1561 1562 1562 1563 1564 1565 1565 1566 1567 1568 1569 1570 1570 1571 1572 1573 1573 1574 1574 1575 1576 1576 1577 1578 1578 1579 1580 1581 1582 1582 1582 1582 1580 1580 1581 1583 1584
1508 1506 1504 1504 1503 1503 1506 1510 1515 1519 1519 1518 1517 1515 1513 1513 1516 1521 1522 1520 1520 1520 1519 1521 1524 1525 1526 1528 1529 1531 1533 1535 1537 1540 1543 1545 1547 1549 1552 1554 1556 1558 1559 1559 1560 1561 1562 1562 1563 1563 1564 1564 1565 1566 1566 1567 1568 1568 1569 1570 1571 1572 1572 1573 1574 1574 1575 1575 1576 1577 1578 1579 1579 1580 1581 1582 1582 1582 1582 1583 1583 1583 1582 1583 1583 1583
1512 1511 1507 1507 1508 1507 1507 1513 1521 1525 1523 1518 1515 1513 1513 1515 1520 1522 1521 1520 1521 1521 1521 1523 1526 1526 1528 1531 1532 1534 1536 1537 1541 1544 1545 1548 1550 1552 1554 1555 1556 1558 1560 1560 1562 1563 1563 1563 1564 1565 1565 1566 1566 1567 1567 1568 1569 1570 1570 1571 1572 1572 1573 1573 1574 1575 1575 1577 1577 1578 1579 1580 1580 1581 1582 1582 1583 1583 1583 1584 1584 1584 1583 1583 1583 1584
1515 1513 1510 1510 1513 1513 1515 1520 1526 1527 1524 1521 1518 1518 1518 1520 1522 1522 1521 1521 1521 1522 1524 1526 1527 1529 1531 1532 1534 1538 1539 1539 1543 1547 1550 1552 1553 1554 1556 1557 1558 1559 1561 1562 1563 1563 1564 1565 1565 1565 1566 1566 1567 1568 1568 1569 1570 1570 1571 1572 1572 1572 1573 1573 1574 1575 1576 1577 1577 1578 1579 1580 1581 1582 1582 1583 1584 1584 1584 1584 1584 1584 1584 1583 1583 1583
1518 1517 1515 1515 1517 1517 1518 1522 1524 1525 1525 1524 1523 1523 1522 1522 1521 1521 1521 1522 1522 1523 1525 1527 1529 1531 1533 1533 1537 1541 1542 1541 1543 1547 1552 1555 1556 1557 1558 1559 1560 1561 1562 1563 1563 1564 1565 1565 1565 1566 1567 1567 1568 1568 1569 1569 1570 1571 1571 1572 1572 1572 1573 1573 1574 1574 1575 1576 1577 1578 1579 1580 1580 1581 1582 1582 1583 1583 1583 1583 1583 1584 1584 1583 1583 1583
1519 1519 1517 1517 1518 1520 1522 1524 1525 1526 1527 1526 1525 1525 1525 1523 1522 1522 1523 1524 1524 1524 1526 1528 1530 1532 1534 1536 1538 1541 1542 1543 1544 1547 1551 1553 1555 1557 1559 1560 1561 1562 1562 1563 1563 1564 1565 1566 1566 1567 1567 1568 1568 1569 1569 1570 1570 1571 1571 1572 1572 1572 1573 1573 1574 1574 1574 1575 1576 1577 1578 1579 1580 1580 1581 1581 1582 1582 1583 1583 1583 1583 1583 1583 1582 1582
1519 1519 1517 1517 1518 1521 1524 1526 1526 1527 1528 1527 1526 1526 1526 1525 1524 1524 1524 1525 1525 1525 1527 1529 1530 1533 1535 1537 1539 1540 1542 1545 1546 1548 1551 1553 1553 1555 1557 1559 1560 1561 1562 1563 1564 1565 1566 1566 1567 1568 1568 1568 1569 1569 1570 1570 1570 1570 1571 1571 1572 1572 1573 1573 1573 1574 1574 1575 1575 1576 1577 1578 1579 1579 1580 1580 1581 1582 1583 1583 1583 1583 1582 1583 1582 1582
1519 1519 1517 1517 1518 1521 1525 1527 1528 1528 1529 1528 1528 1527 1527 1526 1526 1525 1525 1525 1526 1527 1528 1530 1532 1534 1535 1536 1538 1541 1544 1546 1547 1547 1550 1552 1553 1554 1556 1558 1560 1561 1563 1564 1565 1565 1566 1567 1568 1568 1568 1568 1569 1569 1570 1570 1570 1570 1571 1571 1571 1572 1572 1573 1573 1574 1574 1575 1575 1576 1576 1577 1578 1578 1579 1579 1580 1581 1582 1582 1582 1582 1582 1582 1582 1582
1519 1519 1518 1518 1519 1522 1524 1526 1527 1527 1528 1529 1529 1529 1529 1529 1528 1528 1528 1528 1528 1529 1530 1532 1533 1535 1536 1536 1538 1542 1546 1548 1548 1549 1550 1551 1552 1554 1556 1558 1559 1561 1563 1564 1565 1565 1566 1567 1568 1569 1568 1569 1569 1569 1569 1570 1570 1570 1570 1571 1571 1571 1572 1572 1573 1574 1574 1575 1575 1576 1576 1576 1577 1578 1578 1579 1579 1578 1579 1579 1581 1581 1580 1580 1580 1581
1519 1519 1518 1517 1518 1521 1524 1526 1527 1526 1527 1529 1531 1531 1531 1531 1531 1530 1530 1531 1531 1531 1532 1533 1534 1536 1537 1537 1538 1542 1545 1547 1548 1550 1552 1553 1553 1553 1555 1557 1559 1561 1562 1563 1564 1565 1566 1568 1569 1569 1569 1569 1569 1569 1569 1569 1570 1570 1570 1571 1571 1571 1571 1572 1572 1573 1574 1575 1575 1575 1576 1576 1576 1576 1577 1578 1578 1578 1577 1577 1578 1579 1579 1578 1579 1579
1522 1522 1521 1520 1520 1524 1527 1528 1528 1528 1529 1532 1533 1533 1533 1533 1533 1532 1532 1533 1533 1533 1533 1534 1535 1536 1538 1539 1539 1541 1543 1545 1545 1547 1550 1553 1554 1554 1555 1556 1558 1561 1562 1563 1564 1565 1566 1567 1568 1569 1569 1569 1569 1570 1570 1570 1570 1570 1570 1570 1571 1571 1571 1572 1572 1573 1574 1574 1574 1574 1575 1575 1575 1575 1576 1576 1577 1577 1578 1578 1578 1578 1578 1578 1578 1578